When you browse on this site, cookies collect data to enhance your experience and personalize the content and advertising you see.
Visit our Privacy Policy to learn more. By continuing to use the site, you agree to this use of cookies and data.
EN

Hourly Weather Bekescsaba

Today, 25 September, Friday

Time Temperature Precipitation Wind Pressure Humidity
00:00 +20°C° 0 mm 2 mps 749 mmHg 59%
01:00 +19°C° 0 mm 3 mps 749 mmHg 65%
02:00 +19°C° 0 mm 3 mps 749 mmHg 65%
03:00 +18°C° 0 mm 3 mps 748 mmHg 66%
04:00 +18°C° 0 mm 3 mps 748 mmHg 67%
05:00 +19°C° 0 mm 4 mps 748 mmHg 63%
06:00 +20°C° 0 mm 4 mps 747 mmHg 60%
07:00 +20°C° 0 mm 4 mps 747 mmHg 53%
08:00 +22°C° 0 mm 5 mps 746 mmHg 48%
09:00 +24°C° 0 mm 6 mps 746 mmHg 43%
10:00 +27°C° 0 mm 7 mps 746 mmHg 38%
11:00 +28°C° 0 mm 8 mps 745 mmHg 35%
12:00 +29°C° 0 mm 8 mps 744 mmHg 33%
13:00 +31°C° 0 mm 9 mps 744 mmHg 30%
14:00 +28°C° 0.1 mm 8 mps 743 mmHg 41%
15:00 +24°C° 0.1 mm 7 mps 743 mmHg 52%
16:00 +22°C° 0.1 mm 6 mps 742 mmHg 63%
17:00 +22°C° 0.8 mm 6 mps 742 mmHg 64%
18:00 +22°C° 0.8 mm 5 mps 742 mmHg 64%
19:00 +21°C° 0.8 mm 5 mps 741 mmHg 64%
20:00 +21°C° 0.2 mm 5 mps 741 mmHg 64%
21:00 +21°C° 0.2 mm 5 mps 740 mmHg 65%
22:00 +21°C° 0.2 mm 6 mps 740 mmHg 65%
23:00 +20°C° 0.4 mm 6 mps 739 mmHg 68%

Tomorrow, 26 September, Saturday

Time Temperature Precipitation Wind Pressure Humidity
00:00 +20°C° 0.4 mm 6 mps 738 mmHg 71%
01:00 +20°C° 0.4 mm 6 mps 738 mmHg 73%
02:00 +20°C° 0.3 mm 6 mps 738 mmHg 72%
03:00 +20°C° 0.3 mm 5 mps 737 mmHg 72%
04:00 +19°C° 0.3 mm 5 mps 737 mmHg 71%
05:00 +19°C° 0.7 mm 5 mps 737 mmHg 73%
06:00 +18°C° 0.7 mm 4 mps 738 mmHg 75%
07:00 +17°C° 0.7 mm 4 mps 738 mmHg 77%
08:00 +17°C° 0.5 mm 4 mps 738 mmHg 76%
09:00 +17°C° 0.5 mm 3 mps 739 mmHg 74%
10:00 +17°C° 0.5 mm 3 mps 740 mmHg 73%
11:00 +17°C° 0.3 mm 4 mps 740 mmHg 71%
12:00 +17°C° 0.3 mm 4 mps 740 mmHg 69%
13:00 +16°C° 0.3 mm 5 mps 740 mmHg 68%
14:00 +16°C° 0.1 mm 5 mps 740 mmHg 68%
15:00 +17°C° 0.1 mm 4 mps 740 mmHg 68%
16:00 +17°C° 0.1 mm 3 mps 740 mmHg 68%
17:00 +16°C° 0 mm 2 mps 740 mmHg 71%
18:00 +16°C° 0 mm 1 mps 740 mmHg 74%
19:00 +14°C° 0 mm 0 mps 740 mmHg 77%
20:00 +15°C° 0.1 mm 1 mps 741 mmHg 75%
21:00 +15°C° 0.1 mm 2 mps 741 mmHg 74%
22:00 +13°C° 0.1 mm 3 mps 741 mmHg 72%
23:00 +13°C° 0.1 mm 3 mps 742 mmHg 72%

Day after tomorrow, 27 September, Sunday

Time Temperature Precipitation Wind Pressure Humidity
00:00 +12°C° 0.1 mm 4 mps 742 mmHg 72%
01:00 +11°C° 0.1 mm 4 mps 742 mmHg 71%
02:00 +11°C° 0.1 mm 4 mps 743 mmHg 71%
03:00 +11°C° 0.1 mm 3 mps 743 mmHg 71%
04:00 +11°C° 0.1 mm 3 mps 743 mmHg 71%
05:00 +11°C° 0 mm 3 mps 744 mmHg 69%
06:00 +10°C° 0 mm 4 mps 744 mmHg 68%
07:00 +10°C° 0 mm 4 mps 745 mmHg 67%
08:00 +12°C° 0 mm 4 mps 745 mmHg 61%
09:00 +13°C° 0 mm 4 mps 746 mmHg 56%
10:00 +15°C° 0 mm 4 mps 747 mmHg 50%
11:00 +17°C° 0 mm 4 mps 747 mmHg 47%
12:00 +17°C° 0 mm 5 mps 748 mmHg 44%
13:00 +19°C° 0 mm 5 mps 748 mmHg 40%
14:00 +18°C° 0 mm 4 mps 748 mmHg 41%
15:00 +18°C° 0 mm 4 mps 749 mmHg 42%
16:00 +18°C° 0 mm 3 mps 749 mmHg 42%
17:00 +17°C° 0 mm 3 mps 749 mmHg 49%
18:00 +14°C° 0 mm 3 mps 750 mmHg 55%
19:00 +13°C° 0 mm 3 mps 750 mmHg 62%
20:00 +13°C° 0 mm 3 mps 750 mmHg 65%
21:00 +12°C° 0 mm 3 mps 751 mmHg 68%
22:00 +12°C° 0 mm 3 mps 751 mmHg 70%
23:00 +12°C° 0 mm 3 mps 750 mmHg 69%

28 September, Monday

Time Temperature Precipitation Wind Pressure Humidity
00:00 +12°C° 0 mm 4 mps 749 mmHg 68%
01:00 +13°C° 0 mm 4 mps 749 mmHg 66%
02:00 +13°C° 0.3 mm 3 mps 749 mmHg 68%
03:00 +13°C° 0.3 mm 2 mps 748 mmHg 70%
04:00 +13°C° 0.3 mm 1 mps 748 mmHg 72%
05:00 +14°C° 0.2 mm 2 mps 748 mmHg 71%
06:00 +13°C° 0.2 mm 3 mps 748 mmHg 69%
07:00 +14°C° 0.2 mm 4 mps 748 mmHg 68%
08:00 +14°C° 0.3 mm 4 mps 748 mmHg 67%
09:00 +15°C° 0.3 mm 4 mps 748 mmHg 66%
10:00 +17°C° 0.3 mm 4 mps 748 mmHg 65%
11:00 +19°C° 0.1 mm 5 mps 748 mmHg 60%
12:00 +20°C° 0.1 mm 5 mps 748 mmHg 55%
13:00 +22°C° 0.1 mm 6 mps 748 mmHg 50%
14:00 +20°C° 1.7 mm 5 mps 748 mmHg 60%
15:00 +19°C° 1.7 mm 5 mps 748 mmHg 69%
16:00 +17°C° 1.7 mm 4 mps 748 mmHg 79%
17:00 +17°C° 0.3 mm 3 mps 748 mmHg 81%
18:00 +16°C° 0.3 mm 2 mps 749 mmHg 84%
19:00 +16°C° 0.3 mm 1 mps 749 mmHg 86%
20:00 +15°C° 0.1 mm 1 mps 749 mmHg 87%
21:00 +15°C° 0.1 mm 2 mps 749 mmHg 88%
22:00 +15°C° 0.1 mm 2 mps 749 mmHg 88%
23:00 +14°C° 0 mm 2 mps 749 mmHg 87%

29 September, Tuesday

Time Temperature Precipitation Wind Pressure Humidity
00:00 +13°C° 0 mm 3 mps 749 mmHg 86%
01:00 +13°C° 0 mm 3 mps 749 mmHg 84%
02:00 +12°C° 0 mm 3 mps 750 mmHg 87%
03:00 +11°C° 0 mm 3 mps 750 mmHg 89%
04:00 +11°C° 0 mm 3 mps 750 mmHg 92%
05:00 +11°C° 0 mm 4 mps 750 mmHg 90%
06:00 +12°C° 0 mm 4 mps 750 mmHg 88%
07:00 +12°C° 0 mm 5 mps 751 mmHg 87%
08:00 +13°C° 0.1 mm 5 mps 751 mmHg 82%
09:00 +13°C° 0.1 mm 5 mps 751 mmHg 77%
10:00 +13°C° 0.1 mm 5 mps 751 mmHg 72%
11:00 +15°C° 0 mm 5 mps 751 mmHg 67%
12:00 +17°C° 0 mm 4 mps 751 mmHg 61%
13:00 +18°C° 0 mm 4 mps 751 mmHg 55%
14:00 +17°C° 0.2 mm 4 mps 751 mmHg 61%
15:00 +17°C° 0.2 mm 4 mps 751 mmHg 66%
16:00 +15°C° 0.2 mm 4 mps 751 mmHg 71%
17:00 +14°C° 0.3 mm 4 mps 751 mmHg 76%
18:00 +13°C° 0.3 mm 3 mps 751 mmHg 81%
19:00 +13°C° 0.3 mm 3 mps 751 mmHg 86%
20:00 +12°C° 0 mm 3 mps 751 mmHg 87%
21:00 +13°C° 0 mm 2 mps 751 mmHg 88%
22:00 +13°C° 0 mm 2 mps 751 mmHg 90%
23:00 +12°C° 0 mm 2 mps 751 mmHg 91%

30 September, Wednesday

Time Temperature Precipitation Wind Pressure Humidity
00:00 +11°C° 0 mm 3 mps 751 mmHg 92%
01:00 +11°C° 0 mm 3 mps 751 mmHg 93%
02:00 +11°C° 0 mm 3 mps 751 mmHg 92%
03:00 +10°C° 0 mm 2 mps 751 mmHg 92%
04:00 +10°C° 0 mm 2 mps 751 mmHg 91%
05:00 +11°C° 0 mm 3 mps 751 mmHg 89%
06:00 +11°C° 0 mm 4 mps 751 mmHg 86%
07:00 +11°C° 0 mm 4 mps 751 mmHg 84%
08:00 +13°C° 0 mm 4 mps 751 mmHg 77%
09:00 +14°C° 0 mm 4 mps 750 mmHg 70%
10:00 +17°C° 0 mm 4 mps 750 mmHg 64%
11:00 +18°C° 0 mm 4 mps 750 mmHg 60%
12:00 +18°C° 0 mm 4 mps 750 mmHg 57%
13:00 +19°C° 0 mm 4 mps 749 mmHg 53%
14:00 +19°C° 0 mm 3 mps 749 mmHg 55%
15:00 +19°C° 0 mm 2 mps 749 mmHg 56%
16:00 +19°C° 0 mm 2 mps 749 mmHg 57%
17:00 +18°C° 0 mm 2 mps 749 mmHg 60%
18:00 +17°C° 0 mm 2 mps 749 mmHg 63%
19:00 +17°C° 0 mm 2 mps 749 mmHg 66%
20:00 +16°C° 0 mm 2 mps 749 mmHg 69%
21:00 +16°C° 0 mm 2 mps 749 mmHg 71%
22:00 +15°C° 0 mm 2 mps 749 mmHg 74%
23:00 +15°C° 0 mm 2 mps 748 mmHg 74%
Show more